Dewpoint
58 45 41 37 32 28 26 27 28 28 29 34 35 33 33 33 28 26 45 53 55 59 67 71 71 71 71 70 70 70 69 70 70 71 71 71 71 71 72 72 72 71 69 69 69 69 69 68 68
51 40 36 35 30 27 26 27 26 27 30 37 37 39 37 32 43 46 45 52 58 61 67 70 71 71 71 70 70 70 69 70 70 71 71 71 71 71 71 71 71 71 70 69 69 69 69 68 69
50 40 33 32 30 27 29 27 27 28 30 34 38 40 41 39 46 47 50 54 61 64 67 69 71 71 71 70 70 70 70 70 71 71 71 71 71 71 71 72 71 71 70 69 69 69 69 69 68
36 32 28 25 32 36 27 25 26 27 28 31 38 39 43 49 47 49 53 59 62 66 67 69 70 70 71 70 70 70 70 70 70 70 71 71 71 71 72 71 71 71 70 69 69 70 70 69 67
28 25 20 19 19 21 27 26 24 26 28 29 40 41 43 48 52 54 55 59 60 65 67 68 70 70 71 71 70 70 70 70 70 70 70 71 71 71 71 71 71 71 71 70 70 70 70 69 68
21 20 17 17 19 24 23 24 24 26 30 33 36 45 45 49 50 52 55 57 60 63 65 68 70 70 70 71 70 69 69 69 69 69 69 70 71 71 71 71 70 70 71 71 70 70 70 69 68
21 19 24 18 21 21 23 24 23 21 26 29 33 44 46 47 51 51 51 53 57 61 62 64 67 68 70 69 69 69 69 68 69 69 69 69 69 70 70 71 70 70 70 70 70 70 69 69 68
23 20 22 19 20 20 22 20 24 21 23 27 36 43 42 48 52 52 53 53 55 57 59 61 63 65 67 69 68 69 69 68 68 69 69 68 68 69 69 70 70 70 70 70 70 69 69 68 68
25 22 20 22 20 21 22 19 20 22 19 29 34 38 46 54 57 58 57 56 59 60 61 60 59 62 64 66 68 69 70 69 69 68 68 68 67 67 67 68 69 69 69 69 69 69 68 68 67
24 20 28 23 22 21 21 19 18 19 18 25 41 51 55 56 57 57 58 57 58 58 59 61 61 60 62 66 64 65 68 69 69 68 68 68 67 67 67 67 68 68 68 68 68 68 67 67 68
26 19 21 20 21 23 21 20 20 22 21 24 44 52 53 52 52 52 53 58 58 58 57 57 57 60 62 62 62 63 63 65 67 67 68 68 68 68 67 67 67 66 67 67 66 66 66 66 66
15 23 23 24 24 23 22 20 23 29 38 46 50 50 46 44 43 43 44 47 50 56 55 55 55 54 55 57 62 62 64 64 64 65 66 66 66 66 66 66 66 65 66 65 65 65 65 65 65
20 25 26 26 22 21 21 20 22 36 47 47 44 43 42 40 37 37 38 45 49 50 53 55 56 55 55 54 58 58 59 61 63 64 65 65 65 64 63 64 66 65 65 64 64 64 64 63 64
26 27 25 22 19 21 19 18 19 29 45 42 40 38 37 37 36 33 34 37 44 49 53 53 56 57 56 56 56 57 57 58 60 61 62 62 64 64 64 63 64 64 64 64 63 62 62 61 61
28 24 21 19 19 18 19 19 19 36 38 35 34 33 34 35 35 36 35 33 35 42 52 52 52 56 55 54 55 55 56 57 57 58 58 58 60 60 64 64 63 63 64 63 62 61 61 61 60
23 22 15 17 20 18 16 16 34 34 34 32 31 31 32 33 34 34 34 33 33 36 46 54 54 54 53 52 53 54 54 55 56 56 56 56 56 57 58 59 61 63 64 64 63 62 61 60 60
19 15 15 15 21 20 23 27 34 33 30 30 30 30 30 30 31 32 33 34 33 35 39 50 54 53 53 52 51 50 50 53 55 54 54 53 53 54 55 57 58 58 61 63 62 63 62 61 61
16 14 21 14 22 31 29 29 29 30 30 29 28 29 29 28 29 31 32 34 34 34 39 51 52 51 50 49 48 48 49 50 52 53 53 52 52 51 52 55 55 54 55 58 60 61 61 60 61
16 16 15 16 23 28 27 27 28 28 27 27 28 27 28 28 29 30 30 32 34 35 41 48 52 51 50 48 45 44 47 48 49 47 51 48 49 49 50 52 51 51 51 52 55 58 60 60 62
14 13 14 17 28 27 26 26 27 28 28 27 23 23 24 24 24 26 29 30 32 35 38 45 51 51 49 50 48 48 46 47 48 45 45 45 46 49 48 50 48 49 49 50 51 53 55 59 63
16 8 12 16 19 25 23 23 27 28 28 26 24 21 19 19 20 22 25 29 32 36 38 45 49 50 48 48 45 44 44 42 41 40 42 41 43 44 45 45 45 46 48 48 48 50 52 51 57
10 12 10 17 12 8 13 21 26 28 28 17 17 19 18 18 19 19 21 26 33 36 39 43 47 46 46 45 44 43 40 39 39 39 38 40 42 41 42 43 43 44 45 46 45 48 48 51 50
9 14 11 14 10 6 5 20 25 24 21 17 19 23 25 25 24 23 21 25 37 40 42 43 46 45 45 44 44 42 40 41 40 39 38 40 41 41 41 41 41 42 43 43 43 44 45 46 47
11 9 10 13 9 4 6 12 20 19 17 20 25 27 27 27 27 27 28 32 39 42 41 41 44 44 43 41 39 38 36 36 35 34 35 37 38 38 38 39 39 40 41 41 41 41 41 41 42
9 4 -2 0 1 3 15 16 19 19 24 25 27 28 29 28 28 26 26 32 41 41 40 41 43 42 40 38 37 36 36 36 34 35 35 35 35 35 36 37 38 39 40 39 39 38 38 38 38
9 8 3 -14 -6 1 11 17 16 24 27 28 29 30 29 28 27 27 25 30 40 41 41 41 41 38 37 36 37 37 35 33 32 33 34 34 34 34 35 36 36 38 38 37 37 35 35 35 35
9 7 11 10 12 8 8 18 20 26 27 28 29 28 27 25 24 25 26 31 41 40 39 39 37 36 36 37 37 35 32 31 31 31 31 32 32 34 34 34 35 36 37 35 35 33 32 32 33
8 11 6 10 5 3 6 11 14 24 26 28 28 26 25 25 25 33 37 38 41 40 39 38 37 35 37 36 35 33 30 29 30 29 30 31 32 33 33 33 34 34 34 35 33 32 32 31 32
10 12 16 14 14 9 9 10 24 26 27 28 27 25 25 26 29 25 30 36 40 40 40 37 36 37 36 35 33 32 30 31 28 28 29 31 31 31 31 32 32 33 32 32 30 31 30 30 30
15 15 16 12 11 16 16 14 27 28 28 27 25 24 26 25 25 27 28 29 31 34 39 38 37 37 35 33 31 30 30 30 29 28 28 29 29 30 30 31 32 32 30 30 29 29 30 28 29
Lifted_Index
8 8 7 6 6 6 7 7 6 6 5 5 4 4 4 3 3 4 4 4 4 4 1 -1 -2 -2 -1 -1 -1 -1 -1 -2 -2 -3 -3 -3 -3 -3 -3 -3 -3 -3 -3 -2 -2 -2 -2 -2 -1
8 8 7 6 6 6 6 6 6 6 5 5 4 4 4 4 4 4 3 4 4 3 1 -1 -2 -2 -2 -1 -1 -1 -1 -2 -2 -3 -3 -3 -3 -3 -3 -3 -3 -3 -3 -3 -2 -2 -2 -2 -1
8 7 6 6 6 6 6 6 6 6 6 5 4 3 3 3 3 3 3 3 3 2 0 -2 -2 -3 -2 -2 -2 -2 -2 -2 -3 -3 -3 -3 -4 -4 -4 -4 -4 -3 -3 -3 -3 -3 -2 -2 -1
8 7 6 6 6 6 6 7 7 6 6 5 4 3 3 3 3 3 3 3 2 1 -0 -2 -3 -3 -3 -3 -3 -3 -3 -3 -3 -3 -4 -4 -4 -4 -4 -4 -4 -4 -3 -3 -3 -3 -3 -2 -1
8 7 6 5 5 6 7 7 7 6 6 5 4 3 2 2 2 2 3 3 2 1 -0 -2 -3 -4 -4 -4 -4 -3 -3 -3 -3 -3 -4 -4 -4 -5 -5 -4 -4 -4 -4 -4 -4 -4 -3 -2 -1
8 7 6 5 5 6 7 8 7 7 6 5 3 2 2 1 1 2 2 2 2 1 -0 -2 -3 -4 -5 -5 -5 -4 -4 -3 -3 -3 -3 -4 -5 -5 -5 -5 -4 -4 -4 -4 -4 -4 -4 -3 -2
7 6 5 5 6 7 8 8 8 8 7 5 3 2 2 1 1 1 1 1 1 1 0 -1 -2 -4 -4 -5 -5 -5 -4 -4 -3 -3 -3 -4 -4 -5 -5 -5 -5 -4 -4 -4 -4 -4 -4 -3 -2
7 6 5 5 6 7 8 8 8 8 8 6 5 3 3 2 1 1 1 0 0 0 -1 -1 -2 -2 -3 -4 -5 -5 -5 -5 -4 -4 -4 -4 -4 -4 -5 -5 -5 -5 -5 -4 -4 -4 -4 -4 -3
7 6 5 6 6 7 7 7 7 8 8 7 6 4 3 2 1 0 -0 -0 -1 -2 -2 -3 -2 -2 -2 -3 -4 -4 -5 -5 -5 -5 -4 -4 -4 -4 -4 -4 -5 -5 -5 -4 -4 -4 -4 -4 -3
7 6 6 7 8 8 7 7 8 8 8 7 5 3 2 1 0 -0 -0 -1 -1 -2 -2 -3 -3 -3 -2 -2 -3 -3 -4 -4 -5 -5 -5 -4 -4 -4 -4 -4 -4 -4 -4 -4 -4 -4 -4 -3 -3
7 6 7 8 8 8 7 8 8 8 7 6 4 2 2 1 1 0 0 0 0 1 1 0 -0 -1 -1 -1 -2 -1 -2 -3 -3 -4 -4 -4 -3 -3 -3 -3 -3 -4 -4 -4 -3 -3 -3 -3 -3
7 7 8 8 8 8 8 8 8 7 6 5 3 3 3 2 2 2 2 3 4 4 4 4 3 3 3 2 1 1 1 -1 -2 -3 -3 -3 -3 -3 -3 -2 -2 -3 -3 -3 -3 -3 -2 -2 -2
7 8 9 9 8 8 8 8 7 6 5 4 4 4 4 4 4 5 6 7 7 7 6 6 6 6 6 6 5 4 3 1 -0 -2 -2 -3 -3 -3 -2 -2 -2 -2 -2 -2 -2 -2 -2 -2 -1
8 8 8 8 8 7 7 7 7 6 5 4 4 4 4 5 6 7 9 9 9 8 7 7 7 7 7 7 7 6 5 4 3 2 1 -0 -2 -3 -3 -3 -2 -2 -1 -1 -2 -2 -1 -1 -1
8 8 8 8 8 7 7 7 7 6 5 5 5 5 5 6 8 9 10 10 10 9 8 7 7 7 7 7 7 7 6 5 5 4 4 4 2 0 -1 -2 -2 -2 -1 -1 -1 -1 -1 -1 -1
7 7 7 8 9 8 7 7 7 6 6 5 5 5 6 8 9 10 10 11 11 10 9 7 7 7 7 7 7 7 7 6 5 5 6 6 6 5 3 1 -0 -1 -1 -1 -1 -1 -1 -1 -1
7 7 7 8 9 8 7 6 7 7 6 6 6 6 7 9 10 11 11 12 12 11 9 8 7 7 8 8 8 7 7 6 5 5 6 7 7 7 6 4 3 1 -0 -1 -1 -1 -1 -1 -1
6 6 6 7 8 8 7 6 7 7 7 6 7 7 8 9 11 12 12 12 12 11 9 8 8 8 8 9 8 8 7 7 6 6 6 7 7 8 7 6 5 4 2 0 -1 -1 -1 -1 -1
7 6 6 7 8 8 7 7 7 7 7 7 7 8 9 10 11 12 13 13 12 11 10 9 8 8 9 9 9 9 8 8 8 8 8 8 8 8 8 8 7 5 3 1 0 -0 -0 -1 -1
7 6 6 7 8 7 7 7 7 7 7 7 8 9 9 10 11 12 13 13 12 12 11 10 9 9 9 10 10 10 10 9 9 9 10 10 9 9 9 8 8 6 4 3 1 1 0 -1 -2
6 6 5 6 7 7 6 6 6 7 8 8 9 10 10 11 12 12 13 13 12 12 11 11 10 9 9 9 9 10 10 10 11 11 11 11 10 9 9 9 8 7 5 4 3 2 1 -0 -1
6 6 6 5 5 5 5 5 6 7 7 8 9 10 11 12 13 13 12 12 12 11 11 10 10 9 9 9 9 9 9 10 11 12 11 11 10 9 9 9 9 8 6 5 4 3 2 1 1
6 6 6 5 4 4 4 4 5 6 7 8 9 11 12 13 13 12 12 11 11 10 10 9 8 8 8 8 8 8 9 10 10 10 10 10 9 9 9 9 9 9 8 6 5 4 3 2 2
7 6 5 4 3 3 4 4 5 6 7 8 10 11 12 12 12 12 11 11 10 9 8 8 7 7 7 8 8 8 8 8 8 8 8 8 8 8 8 9 9 9 9 8 6 5 4 3 3
6 5 4 2 2 3 4 4 5 7 9 10 11 12 12 12 12 11 11 11 10 8 8 7 7 8 8 7 7 7 7 6 6 6 6 6 7 7 7 8 8 9 9 9 8 7 6 5 4
6 5 4 2 2 3 4 5 6 8 10 11 11 11 11 11 11 11 11 10 9 8 7 7 8 8 7 6 6 6 6 6 6 6 6 7 7 8 8 8 8 8 9 10 10 9 8 7 6
6 6 5 4 3 3 4 5 7 8 10 10 11 10 10 10 10 11 11 10 9 8 8 8 8 7 6 6 6 6 6 6 6 7 8 8 9 9 9 9 9 9 10 10 11 11 10 9 8
7 7 6 5 3 2 3 5 7 8 9 9 10 10 10 10 11 12 12 11 10 9 9 9 8 7 5 5 6 6 7 7 8 8 9 10 10 10 10 10 10 11 11 12 12 12 11 10 10
7 7 6 5 4 3 3 4 7 9 9 10 10 10 10 11 12 12 13 12 11 11 11 10 8 6 6 6 7 7 8 9 9 10 11 11 12 12 12 12 12 13 13 13 13 13 13 12 11
8 7 6 5 5 4 4 5 8 9 10 10 10 10 10 11 12 12 13 13 13 12 12 10 8 7 6 7 7 8 9 10 10 11 12 12 12 13 13 13 13 14 15 14 14 14 14 13 12